Weather History for Pilot Point AP, Pilot Point,, AK

Change the Weather History Date:

Friday, January 31, 2014

  Actual Average (PAKN) Record (PAKN)
Temperature  
Mean Temperature 38 °F 17 °F  
Max Temperature 43 °F 24 °F 50 °F (1994)
Min Temperature 32 °F - -36 °F (1993)
Degree Days  
Heating Degree Days 28 48  
Month to date heating degree days 1513  
Since 1 July heating degree days 6326  
Cooling Degree Days 0    
Month to date cooling degree days  
Year to date cooling degree days  
Moisture  
Dew Point 36 °F    
Average Humidity 91    
Maximum Humidity 100    
Minimum Humidity 81    
Precipitation  
Precipitation 0.00 in 0.03 in 0.48 in (1974)
Month to date precipitation 1.02  
Year to date precipitation 1.02  
Snow  
Snow 0.00 in 0.30 in 9.40 in (1974)
Month to date snowfall 10.2  
Since 1 July snowfall 29.5  
Snow Depth -    
Sea Level Pressure  
Sea Level Pressure 30.22 in    
Wind  
Wind Speed 8 mph (SE)    
Max Wind Speed 15 mph    
Max Gust Speed -    
T = Trace of Precipitation, MM = Missing Value Source: NWS Daily Summary

Daily Weather History Graph

Daily Weather History Graph

Search for Another Location

Airport:

Trip Planner

Search our weather history database for the weather conditions in past years. The results will help you decide how hot, cold, wet, or windy it might be!

Date:

Astronomy

Jan. 31, 2014 Rise Set
Actual Time 9:33 AM AKST 5:54 PM AKST
Civil Twilight 8:49 AM AKST 6:38 PM AKST
Nautical Twilight 8:02 AM AKST 7:25 PM AKST
Astronomical Twilight 7:17 AM AKST 8:10 PM AKST
Moon 9:25 AM AKST (1/31) 8:03 PM AKST (1/31)
Length of Visible Light 9h 48m
Length of Day
8h 21m
New Moon, 1% of the Moon is Illuminated
Jan 31
New Moon
Feb 6
First Quarter
Feb 14
Full
Feb 22
Last Quarter
Feb 28
New

Hourly Weather History & Observations

Time (AKST) Temp. Windchill Dew Point Humidity Pressure Visibility Wind Dir Wind Speed Gust Speed Precip Events Conditions
12:56 AM 39.9 °F 31.8 °F 36.0 °F 86% 30.10 in - SE 15.0 mph - N/A   Unknown
1:56 AM 39.9 °F 34.5 °F 36.0 °F 86% 30.12 in - SE 8.1 mph - N/A   Unknown
3:56 AM 39.9 °F 34.5 °F 36.9 °F 89% 30.14 in - ESE 8.1 mph - N/A   Unknown
4:56 AM 38.8 °F 33.8 °F 36.0 °F 89% 30.15 in - ESE 6.9 mph - N/A   Unknown
5:56 AM 39.2 °F 32.5 °F 35.6 °F 87% 30.15 in - SE 10.4 mph - N/A   Unknown
6:56 AM 37.9 °F 32.1 °F 36.0 °F 93% 30.17 in - SE 8.1 mph - N/A   Unknown
7:56 AM 37.9 °F 30.9 °F 36.0 °F 93% 30.17 in - SE 10.4 mph - N/A   Unknown
8:56 AM 39.2 °F 32.5 °F 35.6 °F 87% 30.18 in - SE 10.4 mph - N/A   Unknown
9:56 AM 37.9 °F 32.1 °F 36.0 °F 93% 30.20 in - SE 8.1 mph - N/A   Unknown
10:56 AM 38.8 °F 33.8 °F 36.0 °F 89% 30.21 in - SE 6.9 mph - N/A   Unknown
11:56 AM 39.2 °F 33.6 °F 37.4 °F 93% 30.21 in - SE 8.1 mph - N/A   Unknown
12:56 PM 41.0 °F 35.2 °F 36.9 °F 85% 30.22 in - SE 9.2 mph - N/A   Unknown
1:56 PM 41.9 °F 37.5 °F 37.9 °F 86% 30.22 in - SE 6.9 mph - N/A   Unknown
2:56 PM 42.8 °F - 37.4 °F 81% 30.22 in - Calm Calm - N/A   Unknown
3:56 PM 43.0 °F - 38.8 °F 85% 30.23 in - Calm Calm - N/A   Unknown
4:56 PM 39.9 °F 34.5 °F 36.9 °F 89% 30.25 in - West 8.1 mph - N/A   Unknown
5:56 PM 37.4 °F 32.1 °F 35.6 °F 93% 30.26 in - NW 6.9 mph - N/A   Unknown
6:56 PM 36.9 °F 31.4 °F 36.0 °F 97% 30.29 in - NW 6.9 mph - N/A   Unknown
7:56 PM 34.0 °F 31.0 °F 34.0 °F 100% 30.30 in - NNW 3.5 mph - N/A   Unknown
8:56 PM 32.0 °F 25.6 °F 32.0 °F 100% 30.30 in - North 6.9 mph - N/A   Unknown
9:56 PM 32.0 °F 27.5 °F 31.1 °F 96% 30.33 in - East 4.6 mph - N/A   Unknown
10:56 PM 32.0 °F - 32.0 °F 100% 30.34 in - Calm Calm - N/A   Unknown
11:56 PM 32.0 °F - 31.1 °F 96% 30.35 in - Calm Calm - N/A   Unknown